contact:dominique.lefevre@mio.osupytheas.fr, maurice.libes@osupytheas.fr, didier.mallarino@osupytheas.fr
Project:EMSO http://www.emso-fr.org/EMSO-France
Depth: 2436.0 m
Title:EMSO Ligure Ouest : Data MII capteur CSTAR
DateTime,Latitude,Longitude,Instrument_Serial,Reference_Counts,Signal_Counts,Corrected_Signal_raw_counts,Calculated_Beam_c_inverse_meters,Internal_thermistor_counts
DateTime,Latitude,Longitude,Instrument_Serial,Reference_Counts,Signal_Counts,Corrected_Signal_raw_counts,Calculated_Beam_c_inverse_meters,Internal_thermistor_counts
2023-03-25T00:00:56,42.805,6.029,CST-1368DR,4344,4740,11588,01.193,551
2023-03-25T00:03:58,42.805,6.029,CST-1368DR,4344,4743,11596,01.191,551
2023-03-25T00:06:59,42.805,6.029,CST-1368DR,4344,4743,11596,01.191,551
2023-03-25T00:10:01,42.805,6.029,CST-1368DR,4344,4743,11596,01.191,551
2023-03-25T00:13:03,42.805,6.029,CST-1368DR,4344,4742,11593,01.192,551
2023-03-25T00:16:04,42.805,6.029,CST-1368DR,4344,4736,11579,01.196,551
2023-03-25T00:19:06,42.805,6.029,CST-1368DR,4344,4751,11616,01.184,551
2023-03-25T00:22:07,42.805,6.029,CST-1368DR,4344,4749,11610,01.186,551
2023-03-25T00:25:09,42.805,6.029,CST-1368DR,4344,4748,11610,01.186,551
2023-03-25T00:28:10,42.805,6.029,CST-1368DR,4344,4741,11591,01.192,551
2023-03-25T00:31:12,42.805,6.029,CST-1368DR,4344,4739,11586,01.194,551
2023-03-25T00:34:14,42.805,6.029,CST-1368DR,4344,4745,11602,01.188,551
2023-03-25T00:37:15,42.805,6.029,CST-1368DR,4344,4748,11610,01.186,552
2023-03-25T00:40:17,42.805,6.029,CST-1368DR,4344,4746,11604,01.188,551
2023-03-25T00:43:18,42.805,6.029,CST-1368DR,4344,4743,11597,01.190,551
2023-03-25T00:46:20,42.805,6.029,CST-1368DR,4344,4741,11591,01.192,551
2023-03-25T00:49:21,42.805,6.029,CST-1368DR,4344,4743,11597,01.190,551
2023-03-25T00:52:23,42.805,6.029,CST-1368DR,4344,4750,11615,01.184,551
2023-03-25T00:55:25,42.805,6.029,CST-1368DR,4344,4738,11585,01.194,551
2023-03-25T00:58:26,42.805,6.029,CST-1368DR,4344,4737,11581,01.196,551
2023-03-25T01:01:28,42.805,6.029,CST-1368DR,4344,4752,11619,01.183,551
2023-03-25T01:04:29,42.805,6.029,CST-1368DR,4344,4746,11605,01.187,551
2023-03-25T01:07:31,42.805,6.029,CST-1368DR,4344,4747,11605,01.187,551
2023-03-25T01:10:33,42.805,6.029,CST-1368DR,4344,4748,11610,01.186,551
2023-03-25T01:13:34,42.805,6.029,CST-1368DR,4344,4740,11589,01.193,551
2023-03-25T01:16:36,42.805,6.029,CST-1368DR,4344,4736,11580,01.196,551
2023-03-25T01:19:37,42.805,6.029,CST-1368DR,4344,4740,11589,01.193,551
2023-03-25T01:22:39,42.805,6.029,CST-1368DR,4344,4739,11586,01.194,551
2023-03-25T01:25:40,42.805,6.029,CST-1368DR,4344,4738,11583,01.195,551
2023-03-25T01:28:42,42.805,6.029,CST-1368DR,4344,4741,11592,01.192,551
2023-03-25T01:31:44,42.805,6.029,CST-1368DR,4344,4739,11588,01.193,551
2023-03-25T01:34:45,42.805,6.029,CST-1368DR,4344,4736,11578,01.197,551
2023-03-25T01:37:47,42.805,6.029,CST-1368DR,4344,4735,11577,01.197,551
2023-03-25T01:40:48,42.805,6.029,CST-1368DR,4344,4742,11594,01.191,551
2023-03-25T01:43:50,42.805,6.029,CST-1368DR,4344,4737,11583,01.195,551
2023-03-25T01:46:51,42.805,6.029,CST-1368DR,4344,4734,11574,01.198,551
2023-03-25T01:49:53,42.805,6.029,CST-1368DR,4344,4744,11600,01.189,551
2023-03-25T01:52:55,42.805,6.029,CST-1368DR,4344,4747,11605,01.187,551
2023-03-25T01:55:56,42.805,6.029,CST-1368DR,4344,4739,11588,01.193,551
2023-03-25T01:58:58,42.805,6.029,CST-1368DR,4344,4743,11596,01.191,551
2023-03-25T02:01:59,42.805,6.029,CST-1368DR,4344,4743,11597,01.190,551
2023-03-25T02:05:01,42.805,6.029,CST-1368DR,4344,4743,11596,01.191,551
2023-03-25T02:08:03,42.805,6.029,CST-1368DR,4344,4735,11578,01.197,551
2023-03-25T02:11:04,42.805,6.029,CST-1368DR,4344,4737,11581,01.196,551
2023-03-25T02:14:06,42.805,6.029,CST-1368DR,4344,4741,11592,01.192,551
2023-03-25T02:17:07,42.805,6.029,CST-1368DR,4344,4742,11593,01.192,551
2023-03-25T02:20:09,42.805,6.029,CST-1368DR,4344,4734,11575,01.198,551
2023-03-25T02:23:10,42.805,6.029,CST-1368DR,4344,4750,11613,01.185,551
2023-03-25T02:26:12,42.805,6.029,CST-1368DR,4344,4744,11599,01.190,551
2023-03-25T02:29:14,42.805,6.029,CST-1368DR,4344,4743,11597,01.190,551
2023-03-25T02:32:15,42.805,6.029,CST-1368DR,4344,4748,11608,01.186,551
2023-03-25T02:35:17,42.805,6.029,CST-1368DR,4344,4740,11589,01.193,551
2023-03-25T02:38:18,42.805,6.029,CST-1368DR,4344,4747,11605,01.187,551
2023-03-25T02:41:20,42.805,6.029,CST-1368DR,4344,4748,11608,01.186,551
2023-03-25T02:44:22,42.805,6.029,CST-1368DR,4344,4741,11591,01.192,551
2023-03-25T02:47:23,42.805,6.029,CST-1368DR,4344,4736,11580,01.196,551
2023-03-25T02:50:25,42.805,6.029,CST-1368DR,4344,4739,11588,01.193,551
2023-03-25T02:53:26,42.805,6.029,CST-1368DR,4344,4740,11590,01.193,551
2023-03-25T02:56:28,42.805,6.029,CST-1368DR,4344,4742,11594,01.191,551
2023-03-25T02:59:29,42.805,6.029,CST-1368DR,4344,4740,11588,01.193,551
2023-03-25T03:02:31,42.805,6.029,CST-1368DR,4344,4737,11582,01.195,551
2023-03-25T03:05:33,42.805,6.029,CST-1368DR,4344,4747,11607,01.187,551
2023-03-25T03:08:34,42.805,6.029,CST-1368DR,4344,4738,11585,01.194,551
2023-03-25T03:11:36,42.805,6.029,CST-1368DR,4344,4727,11558,01.204,551
2023-03-25T03:14:37,42.805,6.029,CST-1368DR,4344,4736,11580,01.196,551
2023-03-25T03:17:39,42.805,6.029,CST-1368DR,4344,4728,11560,01.203,551
2023-03-25T03:20:40,42.805,6.029,CST-1368DR,4344,4743,11597,01.190,551
2023-03-25T03:23:42,42.805,6.029,CST-1368DR,4344,4738,11583,01.195,551
2023-03-25T03:26:44,42.805,6.029,CST-1368DR,4344,4731,11567,01.201,551
2023-03-25T03:29:45,42.805,6.029,CST-1368DR,4344,4729,11563,01.202,551
2023-03-25T03:32:47,42.805,6.029,CST-1368DR,4344,4730,11566,01.201,551
2023-03-25T03:35:48,42.805,6.029,CST-1368DR,4344,4738,11585,01.194,551
2023-03-25T03:38:50,42.805,6.029,CST-1368DR,4344,4733,11571,01.199,551
2023-03-25T03:41:52,42.805,6.029,CST-1368DR,4344,4735,11578,01.197,551
2023-03-25T03:44:53,42.805,6.029,CST-1368DR,4344,4731,11568,01.200,551
2023-03-25T03:47:55,42.805,6.029,CST-1368DR,4344,4731,11567,01.201,551
2023-03-25T03:50:56,42.805,6.029,CST-1368DR,4344,4733,11571,01.199,551
2023-03-25T03:53:58,42.805,6.029,CST-1368DR,4344,4733,11572,01.199,551
2023-03-25T03:56:59,42.805,6.029,CST-1368DR,4344,4732,11569,01.200,551
2023-03-25T04:00:01,42.805,6.029,CST-1368DR,4344,4728,11561,01.203,551
2023-03-25T04:03:03,42.805,6.029,CST-1368DR,4344,4727,11558,01.204,551
2023-03-25T04:06:04,42.805,6.029,CST-1368DR,4344,4736,11580,01.196,551
2023-03-25T04:09:06,42.805,6.029,CST-1368DR,4344,4728,11561,01.203,551
2023-03-25T04:12:07,42.805,6.029,CST-1368DR,4344,4729,11561,01.203,551
2023-03-25T04:15:09,42.805,6.029,CST-1368DR,4344,4727,11558,01.204,551
2023-03-25T04:18:10,42.805,6.029,CST-1368DR,4344,4731,11568,01.200,551
2023-03-25T04:21:12,42.805,6.029,CST-1368DR,4344,4727,11558,01.204,552
2023-03-25T04:24:14,42.805,6.029,CST-1368DR,4344,4736,11579,01.196,551
2023-03-25T04:27:15,42.805,6.029,CST-1368DR,4344,4732,11570,01.200,551
2023-03-25T04:30:17,42.805,6.029,CST-1368DR,4344,4732,11569,01.200,551
2023-03-25T04:33:18,42.805,6.029,CST-1368DR,4344,4731,11568,01.200,551
2023-03-25T04:36:20,42.805,6.029,CST-1368DR,4344,4730,11564,01.202,551
2023-03-25T04:39:22,42.805,6.029,CST-1368DR,4344,4729,11563,01.202,551
2023-03-25T04:42:23,42.805,6.029,CST-1368DR,4344,4733,11572,01.199,551
2023-03-25T04:45:25,42.805,6.029,CST-1368DR,4344,4724,11550,01.206,551
2023-03-25T04:48:26,42.805,6.029,CST-1368DR,4344,4725,11553,01.205,551
2023-03-25T04:51:28,42.805,6.029,CST-1368DR,4344,4732,11569,01.200,551
2023-03-25T04:54:29,42.805,6.029,CST-1368DR,4344,4730,11564,01.202,551
2023-03-25T04:57:31,42.805,6.029,CST-1368DR,4344,4725,11552,01.206,551
2023-03-25T05:00:33,42.805,6.029,CST-1368DR,4344,4727,11558,01.204,551
2023-03-25T05:03:34,42.805,6.029,CST-1368DR,4344,4734,11574,01.198,551
2023-03-25T05:06:36,42.805,6.029,CST-1368DR,4344,4733,11571,01.199,551
2023-03-25T05:09:37,42.805,6.029,CST-1368DR,4344,4726,11556,01.204,551
2023-03-25T05:12:39,42.805,6.029,CST-1368DR,4344,4727,11557,01.204,551
2023-03-25T05:15:40,42.805,6.029,CST-1368DR,4344,4728,11561,01.203,551
2023-03-25T05:18:42,42.805,6.029,CST-1368DR,4344,4732,11569,01.200,551
2023-03-25T05:21:44,42.805,6.029,CST-1368DR,4344,4733,11571,01.199,551
2023-03-25T05:24:45,42.805,6.029,CST-1368DR,4344,4733,11572,01.199,551
2023-03-25T05:27:47,42.805,6.029,CST-1368DR,4344,4732,11570,01.200,551
2023-03-25T05:30:49,42.805,6.029,CST-1368DR,4344,4729,11562,01.202,551
2023-03-25T05:33:51,42.805,6.029,CST-1368DR,4344,4720,11541,01.210,551
2023-03-25T05:36:53,42.805,6.029,CST-1368DR,4344,4721,11542,01.209,551
2023-03-25T05:39:54,42.805,6.029,CST-1368DR,4344,4726,11554,01.205,551
2023-03-25T05:42:56,42.805,6.029,CST-1368DR,4344,4727,11556,01.204,551
2023-03-25T05:45:57,42.805,6.029,CST-1368DR,4344,4726,11555,01.205,551
2023-03-25T05:48:59,42.805,6.029,CST-1368DR,4344,4733,11572,01.199,551
2023-03-25T05:52:00,42.805,6.029,CST-1368DR,4344,4732,11570,01.200,551
2023-03-25T05:55:02,42.805,6.029,CST-1368DR,4344,4725,11553,01.205,551
2023-03-25T05:58:04,42.805,6.029,CST-1368DR,4344,4723,11549,01.207,551
2023-03-25T06:01:05,42.805,6.029,CST-1368DR,4344,4725,11552,01.206,551
2023-03-25T06:04:07,42.805,6.029,CST-1368DR,4344,4722,11544,01.209,551
2023-03-25T06:07:08,42.805,6.029,CST-1368DR,4344,4724,11550,01.206,551
2023-03-25T06:10:10,42.805,6.029,CST-1368DR,4344,4717,11532,01.213,551
2023-03-25T06:13:11,42.805,6.029,CST-1368DR,4344,4725,11553,01.205,551
2023-03-25T06:16:13,42.805,6.029,CST-1368DR,4344,4713,11523,01.216,551
2023-03-25T06:19:15,42.805,6.029,CST-1368DR,4344,4726,11555,01.205,551
2023-03-25T06:22:16,42.805,6.029,CST-1368DR,4344,4723,11547,01.207,551
2023-03-25T06:25:18,42.805,6.029,CST-1368DR,4344,4723,11547,01.207,551
2023-03-25T06:28:19,42.805,6.029,CST-1368DR,4344,4720,11539,01.210,551
2023-03-25T06:31:21,42.805,6.029,CST-1368DR,4344,4712,11520,01.217,551
2023-03-25T06:34:23,42.805,6.029,CST-1368DR,4344,4715,11528,01.214,551
2023-03-25T06:37:24,42.805,6.029,CST-1368DR,4344,4722,11544,01.209,551
2023-03-25T06:40:26,42.805,6.029,CST-1368DR,4344,4718,11535,01.212,551
2023-03-25T06:43:27,42.805,6.029,CST-1368DR,4344,4716,11531,01.213,551
2023-03-25T06:46:29,42.805,6.029,CST-1368DR,4344,4720,11539,01.210,551
2023-03-25T06:49:30,42.805,6.029,CST-1368DR,4344,4721,11542,01.209,551
2023-03-25T06:52:32,42.805,6.029,CST-1368DR,4344,4720,11540,01.210,551
2023-03-25T06:55:34,42.805,6.029,CST-1368DR,4344,4721,11542,01.209,551
2023-03-25T06:58:35,42.805,6.029,CST-1368DR,4344,4722,11544,01.209,551
2023-03-25T07:01:37,42.805,6.029,CST-1368DR,4344,4725,11553,01.205,551
2023-03-25T07:04:38,42.805,6.029,CST-1368DR,4344,4719,11539,01.210,551
2023-03-25T07:07:40,42.805,6.029,CST-1368DR,4344,4707,11508,01.221,551
2023-03-25T07:10:41,42.805,6.029,CST-1368DR,4344,4723,11547,01.207,551
2023-03-25T07:13:43,42.805,6.029,CST-1368DR,4344,4717,11533,01.212,551
2023-03-25T07:16:45,42.805,6.029,CST-1368DR,4344,4726,11554,01.205,551
2023-03-25T07:19:46,42.805,6.029,CST-1368DR,4344,4721,11544,01.209,551
2023-03-25T07:22:48,42.805,6.029,CST-1368DR,4344,4722,11544,01.209,551
2023-03-25T07:25:49,42.805,6.029,CST-1368DR,4344,4714,11525,01.215,551
2023-03-25T07:28:51,42.805,6.029,CST-1368DR,4344,4724,11549,01.207,551
2023-03-25T07:31:52,42.805,6.029,CST-1368DR,4344,4734,11575,01.198,551
2023-03-25T07:34:54,42.805,6.029,CST-1368DR,4344,4716,11531,01.213,551
2023-03-25T07:37:56,42.805,6.029,CST-1368DR,4344,4721,11542,01.209,551
2023-03-25T07:40:57,42.805,6.029,CST-1368DR,4344,4711,11519,01.217,551
2023-03-25T07:43:59,42.805,6.029,CST-1368DR,4344,4715,11529,01.214,551
2023-03-25T07:47:00,42.805,6.029,CST-1368DR,4344,4719,11538,01.211,551
2023-03-25T07:50:02,42.805,6.029,CST-1368DR,4344,4723,11547,01.207,551
2023-03-25T07:53:04,42.805,6.029,CST-1368DR,4344,4714,11526,01.215,551
2023-03-25T07:56:05,42.805,6.029,CST-1368DR,4344,4716,11531,01.213,551
2023-03-25T07:59:07,42.805,6.029,CST-1368DR,4344,4716,11530,01.213,551
2023-03-25T08:02:08,42.805,6.029,CST-1368DR,4344,4722,11544,01.209,551
2023-03-25T08:05:10,42.805,6.029,CST-1368DR,4344,4721,11542,01.209,551
2023-03-25T08:08:11,42.805,6.029,CST-1368DR,4344,4725,11553,01.205,551
2023-03-25T08:11:13,42.805,6.029,CST-1368DR,4344,4717,11533,01.212,551
2023-03-25T08:14:15,42.805,6.029,CST-1368DR,4344,4723,11548,01.207,551
2023-03-25T08:17:16,42.805,6.029,CST-1368DR,4344,4722,11545,01.208,551
2023-03-25T08:20:18,42.805,6.029,CST-1368DR,4344,4723,11548,01.207,551
2023-03-25T08:23:19,42.805,6.029,CST-1368DR,4344,4716,11531,01.213,551
2023-03-25T08:26:21,42.805,6.029,CST-1368DR,4344,4720,11541,01.210,551
2023-03-25T08:29:22,42.805,6.029,CST-1368DR,4344,4722,11546,01.208,551
2023-03-25T08:32:24,42.805,6.029,CST-1368DR,4344,4716,11530,01.213,551
2023-03-25T08:35:26,42.805,6.029,CST-1368DR,4344,4725,11552,01.206,551
2023-03-25T08:38:27,42.805,6.029,CST-1368DR,4344,4720,11541,01.210,551
2023-03-25T08:41:29,42.805,6.029,CST-1368DR,4344,4710,11517,01.218,551
2023-03-25T08:44:30,42.805,6.029,CST-1368DR,4344,4708,11511,01.220,551
2023-03-25T08:47:32,42.805,6.029,CST-1368DR,4344,4715,11527,01.214,551
2023-03-25T08:50:34,42.805,6.029,CST-1368DR,4344,4711,11519,01.217,551
2023-03-25T08:53:35,42.805,6.029,CST-1368DR,4344,4723,11549,01.207,551
2023-03-25T08:56:37,42.805,6.029,CST-1368DR,4344,4712,11520,01.217,551
2023-03-25T08:59:38,42.805,6.029,CST-1368DR,4344,4717,11533,01.212,551
2023-03-25T09:02:40,42.805,6.029,CST-1368DR,4344,4722,11545,01.208,552
2023-03-25T09:05:41,42.805,6.029,CST-1368DR,4344,4716,11531,01.213,551
2023-03-25T09:08:43,42.805,6.029,CST-1368DR,4344,4725,11552,01.206,551
2023-03-25T09:11:45,42.805,6.029,CST-1368DR,4344,4724,11549,01.207,552
2023-03-25T09:14:46,42.805,6.029,CST-1368DR,4344,4727,11558,01.204,551
2023-03-25T09:17:48,42.805,6.029,CST-1368DR,4344,4718,11535,01.212,551
2023-03-25T09:20:49,42.805,6.029,CST-1368DR,4344,4722,11545,01.208,551
2023-03-25T09:23:51,42.805,6.029,CST-1368DR,4344,4726,11555,01.205,551
2023-03-25T09:26:52,42.805,6.029,CST-1368DR,4344,4719,11538,01.211,551
2023-03-25T09:29:54,42.805,6.029,CST-1368DR,4344,4722,11544,01.209,551
2023-03-25T09:32:56,42.805,6.029,CST-1368DR,4344,4725,11552,01.206,551
2023-03-25T09:35:57,42.805,6.029,CST-1368DR,4344,4722,11545,01.208,551
2023-03-25T09:38:59,42.805,6.029,CST-1368DR,4344,4722,11544,01.209,551
2023-03-25T09:42:00,42.805,6.029,CST-1368DR,4344,4722,11545,01.208,551
2023-03-25T09:45:02,42.805,6.029,CST-1368DR,4344,4723,11547,01.207,551
2023-03-25T09:48:03,42.805,6.029,CST-1368DR,4344,4723,11547,01.207,551
2023-03-25T09:51:05,42.805,6.029,CST-1368DR,4344,4724,11549,01.207,551
2023-03-25T09:54:07,42.805,6.029,CST-1368DR,4344,4723,11549,01.207,551
2023-03-25T09:57:08,42.805,6.029,CST-1368DR,4344,4725,11552,01.206,551
2023-03-25T10:00:10,42.805,6.029,CST-1368DR,4344,4730,11564,01.202,551
2023-03-25T10:03:11,42.805,6.029,CST-1368DR,4344,4728,11561,01.203,551
2023-03-25T10:06:13,42.805,6.029,CST-1368DR,4344,4730,11564,01.202,551
2023-03-25T10:09:15,42.805,6.029,CST-1368DR,4344,4734,11575,01.198,551
2023-03-25T10:12:16,42.805,6.029,CST-1368DR,4344,4742,11594,01.191,551
2023-03-25T10:15:18,42.805,6.029,CST-1368DR,4344,4744,11599,01.190,551
2023-03-25T10:18:19,42.805,6.029,CST-1368DR,4344,4739,11588,01.193,551
2023-03-25T10:21:21,42.805,6.029,CST-1368DR,4344,4735,11578,01.197,551
2023-03-25T10:24:22,42.805,6.029,CST-1368DR,4344,4732,11571,01.199,551
2023-03-25T10:27:24,42.805,6.029,CST-1368DR,4344,4730,11564,01.202,551
2023-03-25T10:30:26,42.805,6.029,CST-1368DR,4344,4733,11572,01.199,551
2023-03-25T10:33:27,42.805,6.029,CST-1368DR,4344,4741,11591,01.192,551
2023-03-25T10:36:29,42.805,6.029,CST-1368DR,4344,4736,11579,01.196,551
2023-03-25T10:39:30,42.805,6.029,CST-1368DR,4344,4733,11572,01.199,551
2023-03-25T10:42:32,42.805,6.029,CST-1368DR,4344,4729,11561,01.203,551
2023-03-25T10:45:33,42.805,6.029,CST-1368DR,4344,4728,11561,01.203,551
2023-03-25T10:48:35,42.805,6.029,CST-1368DR,4344,4728,11559,01.203,551
2023-03-25T10:51:37,42.805,6.029,CST-1368DR,4344,4727,11558,01.204,551
2023-03-25T10:54:38,42.805,6.029,CST-1368DR,4344,4727,11558,01.204,551
2023-03-25T10:57:40,42.805,6.029,CST-1368DR,4343,4722,11549,01.207,551
2023-03-25T11:00:41,42.805,6.029,CST-1368DR,4344,4731,11567,01.201,551
2023-03-25T11:03:43,42.805,6.029,CST-1368DR,4344,4730,11566,01.201,551
2023-03-25T11:06:45,42.805,6.029,CST-1368DR,4344,4729,11563,01.202,551
2023-03-25T11:09:46,42.805,6.029,CST-1368DR,4344,4727,11558,01.204,551
2023-03-25T11:12:48,42.805,6.029,CST-1368DR,4344,4728,11560,01.203,551
2023-03-25T11:15:49,42.805,6.029,CST-1368DR,4344,4724,11549,01.207,551
2023-03-25T11:18:51,42.805,6.029,CST-1368DR,4343,4724,11553,01.205,551
2023-03-25T11:21:52,42.805,6.029,CST-1368DR,4344,4726,11554,01.205,551
2023-03-25T11:24:54,42.805,6.029,CST-1368DR,4344,4723,11547,01.207,551
2023-03-25T11:27:56,42.805,6.029,CST-1368DR,4344,4725,11552,01.206,551
2023-03-25T11:30:57,42.805,6.029,CST-1368DR,4344,4723,11548,01.207,551
2023-03-25T11:33:59,42.805,6.029,CST-1368DR,4344,4723,11549,01.207,551
2023-03-25T11:37:00,42.805,6.029,CST-1368DR,4344,4721,11544,01.209,551
2023-03-25T11:40:02,42.805,6.029,CST-1368DR,4344,4720,11540,01.210,551
2023-03-25T11:43:03,42.805,6.029,CST-1368DR,4344,4722,11546,01.208,551
2023-03-25T11:46:05,42.805,6.029,CST-1368DR,4344,4726,11555,01.205,551
2023-03-25T11:49:07,42.805,6.029,CST-1368DR,4344,4723,11549,01.207,551
2023-03-25T11:52:08,42.805,6.029,CST-1368DR,4344,4724,11550,01.206,551
2023-03-25T11:55:10,42.805,6.029,CST-1368DR,4344,4724,11550,01.206,551
2023-03-25T11:58:11,42.805,6.029,CST-1368DR,4343,4722,11547,01.207,551
2023-03-25T12:01:13,42.805,6.029,CST-1368DR,4344,4722,11544,01.209,551
2023-03-25T12:04:14,42.805,6.029,CST-1368DR,4343,4722,11547,01.207,551
2023-03-25T12:07:16,42.805,6.029,CST-1368DR,4343,4721,11544,01.209,551
2023-03-25T12:10:18,42.805,6.029,CST-1368DR,4344,4721,11542,01.209,551
2023-03-25T12:13:19,42.805,6.029,CST-1368DR,4344,4724,11550,01.206,551
2023-03-25T12:16:21,42.805,6.029,CST-1368DR,4344,4722,11546,01.208,551
2023-03-25T12:19:22,42.805,6.029,CST-1368DR,4344,4721,11542,01.209,551
2023-03-25T12:22:24,42.805,6.029,CST-1368DR,4344,4724,11550,01.206,551
2023-03-25T12:25:26,42.805,6.029,CST-1368DR,4344,4720,11541,01.210,551
2023-03-25T12:28:27,42.805,6.029,CST-1368DR,4344,4727,11557,01.204,551
2023-03-25T12:31:29,42.805,6.029,CST-1368DR,4343,4719,11540,01.210,551
2023-03-25T12:34:30,42.805,6.029,CST-1368DR,4344,4724,11549,01.207,551
2023-03-25T12:37:32,42.805,6.029,CST-1368DR,4343,4723,11551,01.206,551
2023-03-25T12:40:33,42.805,6.029,CST-1368DR,4343,4725,11554,01.205,551
2023-03-25T12:43:35,42.805,6.029,CST-1368DR,4344,4718,11536,01.211,551
2023-03-25T12:46:37,42.805,6.029,CST-1368DR,4343,4724,11552,01.206,551
2023-03-25T12:49:38,42.805,6.029,CST-1368DR,4343,4725,11555,01.205,551
2023-03-25T12:52:40,42.805,6.029,CST-1368DR,4344,4724,11550,01.206,551
2023-03-25T12:55:41,42.805,6.029,CST-1368DR,4344,4723,11549,01.207,551
2023-03-25T12:58:43,42.805,6.029,CST-1368DR,4343,4724,11552,01.206,551
2023-03-25T13:01:44,42.805,6.029,CST-1368DR,4343,4727,11559,01.203,551
2023-03-25T13:04:46,42.805,6.029,CST-1368DR,4344,4724,11549,01.207,551
2023-03-25T13:07:48,42.805,6.029,CST-1368DR,4343,4722,11549,01.207,551
2023-03-25T13:10:49,42.805,6.029,CST-1368DR,4344,4727,11556,01.204,551
2023-03-25T13:13:51,42.805,6.029,CST-1368DR,4343,4720,11544,01.209,551
2023-03-25T13:16:52,42.805,6.029,CST-1368DR,4343,4719,11539,01.210,551
2023-03-25T13:19:54,42.805,6.029,CST-1368DR,4344,4723,11547,01.207,551
2023-03-25T13:22:56,42.805,6.029,CST-1368DR,4343,4724,11552,01.206,551
2023-03-25T13:25:57,42.805,6.029,CST-1368DR,4344,4728,11560,01.203,551
2023-03-25T13:28:59,42.805,6.029,CST-1368DR,4343,4728,11561,01.203,551
2023-03-25T13:32:01,42.805,6.029,CST-1368DR,4343,4726,11558,01.204,551
2023-03-25T13:35:02,42.805,6.029,CST-1368DR,4343,4726,11557,01.204,551
2023-03-25T13:38:04,42.805,6.029,CST-1368DR,4343,4729,11565,01.201,551
2023-03-25T13:41:05,42.805,6.029,CST-1368DR,4343,4726,11558,01.204,551
2023-03-25T13:44:07,42.805,6.029,CST-1368DR,4343,4725,11554,01.205,551
2023-03-25T13:47:09,42.805,6.029,CST-1368DR,4343,4728,11563,01.202,551
2023-03-25T13:50:10,42.805,6.029,CST-1368DR,4343,4722,11549,01.207,551
2023-03-25T13:53:12,42.805,6.029,CST-1368DR,4343,4723,11550,01.206,551
2023-03-25T13:56:13,42.805,6.029,CST-1368DR,4343,4727,11560,01.203,551
2023-03-25T13:59:15,42.805,6.029,CST-1368DR,4343,4721,11545,01.208,551
2023-03-25T14:02:16,42.805,6.029,CST-1368DR,4343,4725,11556,01.204,551
2023-03-25T14:05:18,42.805,6.029,CST-1368DR,4343,4723,11550,01.206,551
2023-03-25T14:08:20,42.805,6.029,CST-1368DR,4343,4727,11560,01.203,551
2023-03-25T14:11:21,42.805,6.029,CST-1368DR,4343,4721,11544,01.209,551
2023-03-25T14:14:23,42.805,6.029,CST-1368DR,4343,4726,11558,01.204,551
2023-03-25T14:17:24,42.805,6.029,CST-1368DR,4343,4721,11545,01.208,551
2023-03-25T14:20:26,42.805,6.029,CST-1368DR,4343,4723,11550,01.206,551
2023-03-25T14:23:27,42.805,6.029,CST-1368DR,4343,4732,11572,01.199,551
2023-03-25T14:26:29,42.805,6.029,CST-1368DR,4343,4730,11567,01.201,551
2023-03-25T14:29:31,42.805,6.029,CST-1368DR,4343,4718,11538,01.211,551
2023-03-25T14:32:32,42.805,6.029,CST-1368DR,4343,4724,11552,01.206,551
2023-03-25T14:35:34,42.805,6.029,CST-1368DR,4343,4729,11564,01.202,551
2023-03-25T14:38:35,42.805,6.029,CST-1368DR,4343,4726,11557,01.204,551
2023-03-25T14:41:37,42.805,6.029,CST-1368DR,4343,4722,11547,01.207,551
2023-03-25T14:44:39,42.805,6.029,CST-1368DR,4343,4725,11554,01.205,551
2023-03-25T14:47:40,42.805,6.029,CST-1368DR,4343,4717,11535,01.212,551
2023-03-25T14:50:42,42.805,6.029,CST-1368DR,4343,4721,11544,01.209,551
2023-03-25T14:53:43,42.805,6.029,CST-1368DR,4343,4723,11551,01.206,551
2023-03-25T14:56:45,42.805,6.029,CST-1368DR,4343,4721,11545,01.208,551
2023-03-25T14:59:46,42.805,6.029,CST-1368DR,4343,4721,11546,01.208,551
2023-03-25T15:02:48,42.805,6.029,CST-1368DR,4343,4717,11536,01.211,551
2023-03-25T15:05:50,42.805,6.029,CST-1368DR,4343,4724,11552,01.206,551
2023-03-25T15:08:51,42.805,6.029,CST-1368DR,4343,4722,11547,01.207,551
2023-03-25T15:11:53,42.805,6.029,CST-1368DR,4343,4730,11566,01.201,551
2023-03-25T15:14:54,42.805,6.029,CST-1368DR,4343,4721,11544,01.209,551
2023-03-25T15:17:56,42.805,6.029,CST-1368DR,4343,4719,11541,01.210,551
2023-03-25T15:20:57,42.805,6.029,CST-1368DR,4343,4722,11547,01.207,551
2023-03-25T15:23:59,42.805,6.029,CST-1368DR,4343,4724,11552,01.206,551
2023-03-25T15:27:01,42.805,6.029,CST-1368DR,4343,4715,11530,01.213,551
2023-03-25T15:30:02,42.805,6.029,CST-1368DR,4343,4712,11524,01.215,551
2023-03-25T15:33:04,42.805,6.029,CST-1368DR,4343,4714,11527,01.214,551
2023-03-25T15:36:05,42.805,6.029,CST-1368DR,4343,4720,11542,01.209,551
2023-03-25T15:39:07,42.805,6.029,CST-1368DR,4343,4719,11539,01.210,551
2023-03-25T15:42:09,42.805,6.029,CST-1368DR,4343,4720,11543,01.209,551
2023-03-25T15:45:10,42.805,6.029,CST-1368DR,4343,4716,11533,01.212,551
2023-03-25T15:48:12,42.805,6.029,CST-1368DR,4343,4718,11539,01.210,551
2023-03-25T15:51:13,42.805,6.029,CST-1368DR,4343,4726,11558,01.204,551
2023-03-25T15:54:15,42.805,6.029,CST-1368DR,4343,4725,11556,01.204,551
2023-03-25T15:57:16,42.805,6.029,CST-1368DR,4343,4728,11563,01.202,551
2023-03-25T16:00:18,42.805,6.029,CST-1368DR,4343,4719,11539,01.210,551
2023-03-25T16:03:20,42.805,6.029,CST-1368DR,4343,4711,11521,01.216,551
2023-03-25T16:06:21,42.805,6.029,CST-1368DR,4343,4714,11528,01.214,551
2023-03-25T16:09:23,42.805,6.029,CST-1368DR,4343,4716,11532,01.213,551
2023-03-25T16:12:24,42.805,6.029,CST-1368DR,4343,4721,11545,01.208,551
2023-03-25T16:15:26,42.805,6.029,CST-1368DR,4343,4712,11524,01.215,551
2023-03-25T16:18:27,42.805,6.029,CST-1368DR,4343,4717,11536,01.211,551
2023-03-25T16:21:29,42.805,6.029,CST-1368DR,4343,4716,11533,01.212,551
2023-03-25T16:24:31,42.805,6.029,CST-1368DR,4343,4716,11533,01.212,551
2023-03-25T16:27:32,42.805,6.029,CST-1368DR,4343,4718,11538,01.211,551
2023-03-25T16:30:34,42.805,6.029,CST-1368DR,4343,4718,11539,01.210,551
2023-03-25T16:33:35,42.805,6.029,CST-1368DR,4343,4717,11535,01.212,551
2023-03-25T16:36:37,42.805,6.029,CST-1368DR,4343,4724,11552,01.206,551